Station NLHC3 - 8461490 - New London, CT Image indicating link to RSS feed of recent meteorological observations for station NLHC3


Conditions at NLHC3 as of
(1:30 pm EST)
1830 GMT on 12/05/2023:
     

Click on the graph icon in the table below to see a time series plot of the last five days of that observation.

5-day plot - Atmospheric Pressure Atmospheric Pressure (PRES):29.99 in
5-day plot - Air Temperature Air Temperature (ATMP): 39.4 °F
5-day plot - Water Temperature Water Temperature (WTMP): 48.9 °F
NOS Water Level Observation Network Water Level
Previous observations
TIME
(EST)
5-day plot - Wind Direction
WDIR
 
5-day plot - Wind Speed
WSPD
kts
5-day plot - Wind Gust
GST
kts
5-day plot - Wave Height
WVHT
ft
5-day plot - Dominant Wave Period
DPD
sec
5-day plot - Average Wave Period
APD
sec
5-day plot - Mean Wave Direction
MWD
 
5-day plot - Atmospheric Pressure
PRES
in
5-day plot - Pressure Tendency
PTDY
in
5-day plot - Air Temperature
ATMP
°F
5-day plot - Water Temperature
WTMP
°F
5-day plot - Dew Point
DEWP
°F
5-day plot - Salinity
SAL
psu
5-day plot - Visibility
VIS
nmi
5-day plot - Tide (above MLLW)
TIDE
ft
2023-12-05 01:24 pm-------30.00- 39.4 48.4----
2023-12-05 01:18 pm---------- 47.1----
2023-12-05 01:12 pm---------- 48.4----
2023-12-05 01:06 pm---------- 48.4----
2023-12-05 01:00 pm---------- 47.5----
2023-12-05 12:54 pm---------- 46.9----
2023-12-05 12:48 pm-------29.98-------
2023-12-05 12:42 pm-------29.98-------
2023-12-05 12:36 pm-------29.97-------
2023-12-05 12:30 pm-------29.97-------
2023-12-05 12:24 pm-------29.96-------
2023-12-05 12:18 pm-------29.96-- 46.9----
2023-12-05 12:12 pm-------29.96-- 46.6----
2023-12-05 12:06 pm-------29.96-- 46.6----
2023-12-05 12:00 pm-------29.96- 39.7 46.8----
2023-12-05 11:54 am-------29.96- 39.7 46.6----
2023-12-05 11:48 am-------29.96-- 46.8----
2023-12-05 11:42 am-------29.97-- 47.1----
2023-12-05 11:36 am-------29.97-- 47.5----
2023-12-05 11:30 am-------29.97-- 47.1----
2023-12-05 11:24 am-------29.97-- 47.1----
2023-12-05 11:18 am-------29.98- 39.6 47.3----
2023-12-05 11:12 am-------29.98- 39.7 47.3----
2023-12-05 11:06 am-------29.98- 39.7 47.5----
2023-12-05 11:00 am-------29.98+0.03 39.6 47.7----
2023-12-05 10:54 am-------29.98- 39.6 46.8----
2023-12-05 10:48 am-------29.99- 39.6 46.2----
2023-12-05 10:42 am-------29.99- 39.7 46.2----
2023-12-05 10:36 am-------29.98- 39.7 46.8----
2023-12-05 10:30 am-------29.98- 39.7 46.2----
2023-12-05 10:24 am-------29.99- 39.7 45.9----
2023-12-05 10:18 am-------29.99- 39.9 45.7----
2023-12-05 10:12 am-------29.99- 39.7 46.0----
2023-12-05 10:06 am-------29.99- 39.6 46.4----
2023-12-05 10:00 am-------29.99- 39.7 46.8----
2023-12-05 08:00 am-------29.95+0.05- 44.6----
2023-12-05 07:54 am-------29.96-- 44.8----
2023-12-05 07:48 am-------29.96-------
2023-12-05 07:42 am-------29.95-------
2023-12-05 07:36 am-------29.95-------
2023-12-05 07:30 am-------29.95-------
2023-12-05 07:24 am-------29.94-------
2023-12-05 07:18 am-------29.94- 37.0 45.3----
2023-12-05 07:12 am-------29.94- 37.0 45.5----
2023-12-05 07:06 am-------29.94- 37.0 45.9----
2023-12-05 07:00 am---------- 46.4----
2023-12-05 06:54 am---------- 46.0----
2023-12-05 06:48 am-------29.93-------
2023-12-05 06:42 am-------29.93-------
2023-12-05 06:36 am-------29.94-------
2023-12-05 06:30 am--------- 37.2 48.4----
2023-12-05 06:24 am--------- 37.2 50.2----
2023-12-05 06:18 am-------29.94-- 50.4----
2023-12-05 06:12 am-------29.93-- 50.4----
2023-12-05 06:06 am-------29.93-- 50.4----
2023-12-05 06:00 am-------29.93+0.07------
2023-12-05 05:54 am-------29.92-------
2023-12-05 05:48 am-------29.92- 37.8 50.4----
2023-12-05 05:42 am-------29.92- 37.8 50.5----
2023-12-05 05:36 am-------29.92- 38.1 50.9----
2023-12-05 05:30 am-------29.92- 38.1 50.5----
2023-12-05 05:24 am-------29.92- 38.1 50.2----
2023-12-05 05:18 am-------29.91- 38.1 49.8----
2023-12-05 05:12 am-------29.91- 38.3 49.3----
2023-12-05 05:06 am-------29.90- 38.3 49.3----
2023-12-05 05:00 am-------29.90+0.07 38.5 49.3----
2023-12-05 04:54 am-------29.90- 38.7 49.6----
2023-12-05 04:48 am-------29.89- 38.8 50.2----
2023-12-05 04:42 am-------29.89- 38.8 50.0----
2023-12-05 04:36 am-------29.89- 39.0 50.2----
2023-12-05 04:30 am-------29.89- 39.2 50.7----
2023-12-05 04:24 am-------29.88- 39.2 50.5----
2023-12-05 04:18 am-------29.88- 39.2 50.5----
2023-12-05 04:12 am-------29.88- 39.2 50.4----
2023-12-05 04:06 am-------29.87- 39.4 50.5----
2023-12-05 04:00 am-------29.87+0.06 39.6 50.2----
2023-12-05 03:54 am-------29.87- 39.7 50.4----
2023-12-05 03:48 am-------29.87- 39.6 50.4----
2023-12-05 03:42 am-------29.86- 39.7 50.4----
2023-12-05 03:36 am-------29.86- 39.9 50.4----
2023-12-05 03:30 am-------29.86- 39.7 50.4----
2023-12-05 03:24 am-------29.86- 40.1 50.5----
2023-12-05 03:18 am-------29.86- 40.1 50.5----
2023-12-05 03:12 am-------29.85- 40.3 50.9----
2023-12-05 03:06 am-------29.85- 40.5 51.1----
2023-12-05 03:00 am-------29.85+0.06 40.6 51.3----
2023-12-05 02:54 am-------29.85- 40.6 51.6----
2023-12-05 02:48 am-------29.85- 40.8 51.6----
2023-12-05 02:42 am-------29.85- 40.8 51.6----
2023-12-05 02:36 am-------29.85- 41.0 51.4----
2023-12-05 02:30 am-------29.84- 41.2 51.4----
2023-12-05 02:24 am-------29.84- 41.4 51.4----
2023-12-05 02:18 am-------29.84- 41.5 51.4----
2023-12-05 02:12 am-------29.83- 41.5 51.4----
2023-12-05 02:06 am-------29.83- 41.7 51.4----
2023-12-05 02:00 am-------29.83+0.04- 51.4----
2023-12-05 01:54 am-------29.83-- 51.4----
2023-12-05 01:48 am-------29.83- 42.3 51.3----
2023-12-05 01:42 am-------29.83- 42.4 51.3----
2023-12-05 01:36 am-------29.82- 42.4 51.3----
2023-12-05 01:30 am-------29.82- 42.6 51.3----
2023-12-05 01:24 am-------29.81- 42.8 51.3----
2023-12-05 01:18 am-------29.81- 42.8 51.1----
2023-12-05 01:12 am-------29.81- 43.0 50.7----
2023-12-05 01:06 am-------29.80- 43.2 51.1----
2023-12-05 01:00 am-------29.80+0.02 43.5 50.9----
2023-12-05 12:54 am-------29.80- 43.7 51.1----
2023-12-05 12:48 am-------29.80- 43.7 50.9----
2023-12-05 12:42 am-------29.80- 43.7 50.7----
2023-12-05 12:36 am-------29.80- 43.9 50.5----
2023-12-05 12:30 am-------29.80-- 50.5----
2023-12-05 12:24 am-------29.80-- 50.4----
2023-12-05 12:18 am-------29.80- 44.1 50.4----
2023-12-05 12:12 am-------29.79- 44.1 50.0----
2023-12-05 12:06 am-------29.79- 44.2 49.6----
2023-12-05 12:00 am-------29.79+0.02- 48.9----
2023-12-04 11:54 pm-------29.79-- 48.9----
2023-12-04 11:48 pm-------29.79- 44.1 48.9----
2023-12-04 11:42 pm-------29.79- 44.2 48.6----
2023-12-04 11:36 pm-------29.79- 44.4 48.6----
2023-12-04 11:30 pm--------- 44.4-----
2023-12-04 11:24 pm--------- 44.4-----
2023-12-04 11:18 pm--------- 44.2 48.6----
2023-12-04 11:12 pm--------- 44.6 48.6----
2023-12-04 11:06 pm--------- 44.6 48.9----
2023-12-04 11:00 pm-------29.79+0.03 44.4 49.3----
2023-12-04 10:54 pm-------29.79- 43.5 48.9----
2023-12-04 10:48 pm-------29.79- 43.5 48.7----
2023-12-04 10:42 pm-------29.79- 43.7 47.8----
2023-12-04 10:36 pm-------29.79- 43.9 46.4----
2023-12-04 10:30 pm-------29.78- 43.9 46.4----
2023-12-04 10:24 pm-------29.78- 44.2 46.4----
2023-12-04 10:18 pm-------29.78- 45.1 46.8----
2023-12-04 10:12 pm-------29.78- 45.3 46.6----
2023-12-04 10:06 pm-------29.78- 45.5 46.6----
2023-12-04 10:00 pm-------29.78+0.03 45.7 46.6----
2023-12-04 09:54 pm-------29.78- 45.7 46.8----
2023-12-04 09:48 pm-------29.78- 45.7 46.8----
2023-12-04 09:42 pm-------29.78- 45.7 46.4----
2023-12-04 09:36 pm-------29.78- 45.7 46.4----
2023-12-04 09:30 pm-------29.78- 45.7 46.4----
2023-12-04 09:24 pm-------29.78- 45.7 46.4----
2023-12-04 09:18 pm-------29.78- 45.9 46.2----
2023-12-04 09:12 pm-------29.78- 46.0 46.0----
2023-12-04 09:06 pm-------29.78- 46.4 46.0----
2023-12-04 09:00 pm-------29.78-- 46.0----
2023-12-04 08:54 pm-------29.78-- 45.9----
2023-12-04 08:48 pm-------29.78-- 45.9----
2023-12-04 08:42 pm-------29.78-- 46.0----
2023-12-04 08:36 pm-------29.77-- 45.9----
2023-12-04 08:30 pm-------29.77-- 45.7----
2023-12-04 08:24 pm-------29.77-- 45.9----
2023-12-04 08:18 pm-------29.77- 46.9 45.9----
2023-12-04 08:12 pm-------29.77- 46.9 45.9----
2023-12-04 08:06 pm-------29.76- 46.9 45.7----
2023-12-04 08:00 pm-------29.76- 47.1 45.7----
2023-12-04 07:54 pm-------29.76- 47.1 45.7----
2023-12-04 07:48 pm-------29.76- 46.9 45.7----
2023-12-04 07:42 pm-------29.76- 46.8 45.9----
2023-12-04 07:36 pm-------29.76- 46.6 45.9----
2023-12-04 07:30 pm-------29.76- 46.6 45.9----
2023-12-04 07:24 pm-------29.76- 46.6 46.4----
2023-12-04 07:18 pm-------29.75- 46.6 48.7----
2023-12-04 07:12 pm-------29.75- 46.4 48.9----
2023-12-04 07:06 pm-------29.75- 46.8 49.1----
2023-12-04 07:00 pm-------29.75+0.06 46.9 48.7----
2023-12-04 06:54 pm-------29.75- 47.1 48.9----
2023-12-04 06:48 pm---------- 48.4----
2023-12-04 06:42 pm---------- 49.6----
2023-12-04 06:36 pm---------- 49.8----
2023-12-04 06:30 pm-------29.74-------
2023-12-04 06:24 pm-------29.74-------
2023-12-04 06:00 pm--------- 47.7-----
2023-12-04 05:54 pm--------- 47.7-----
2023-12-04 05:48 pm-------29.72-- 50.7----
2023-12-04 05:42 pm-------29.72-- 50.7----
2023-12-04 05:36 pm-------29.72-- 50.5----
2023-12-04 05:30 pm-------29.72-- 50.7----
2023-12-04 05:24 pm-------29.72-- 50.7----
2023-12-04 05:18 pm---------- 50.9----
2023-12-04 05:12 pm---------- 50.9----
2023-12-04 05:06 pm---------- 50.9----
2023-12-04 05:00 pm--------- 48.7-----
2023-12-04 04:54 pm--------- 48.9-----
2023-12-04 04:48 pm--------- 48.6-----
2023-12-04 04:42 pm--------- 49.3-----
2023-12-04 04:36 pm--------- 49.1-----
2023-12-04 04:30 pm--------- 49.6-----
2023-12-04 04:24 pm--------- 49.8-----
2023-12-04 04:18 pm-------29.70- 50.0 50.7----
2023-12-04 04:12 pm-------29.69- 50.2 50.7----
2023-12-04 04:06 pm-------29.69- 50.4 50.7----
2023-12-04 04:00 pm-------29.69-0.01------
2023-12-04 03:54 pm-------29.69-------
2023-12-04 03:48 pm-------29.69-- 50.7----
2023-12-04 03:42 pm-------29.69-- 50.7----
2023-12-04 03:36 pm-------29.69-- 50.7----
2023-12-04 03:30 pm-------29.68- 50.7 50.7----
2023-12-04 03:24 pm-------29.68- 50.9 50.5----
2023-12-04 03:18 pm-------29.68- 50.9 50.5----
2023-12-04 03:12 pm-------29.68- 51.1 50.5----
2023-12-04 03:06 pm-------29.68- 51.1 50.7----
2023-12-04 03:00 pm-------29.68-0.02 51.3 50.5----
2023-12-04 02:54 pm-------29.69- 51.3 50.7----
2023-12-04 02:48 pm-------29.68- 51.3 50.7----
2023-12-04 02:42 pm-------29.69- 51.1 50.7----
2023-12-04 02:36 pm-------29.69- 51.1 50.9----
2023-12-04 02:30 pm-------29.69- 51.1 51.1----
2023-12-04 02:24 pm-------29.70- 51.1 51.1----
2023-12-04 02:18 pm-------29.70- 50.9 51.1----
2023-12-04 02:12 pm-------29.71- 50.9 51.1----
2023-12-04 02:06 pm-------29.70- 50.9 50.9----
2023-12-04 02:00 pm-------29.71-0.01 50.9 50.7----
2023-12-04 01:54 pm-------29.71- 51.6 50.7----